[[{"header":{"parameterUnit":"m.s-1","parameterCategory":1,"la1":30.2992,"la2":30.254,"lo1":-89.0895,"lo2":-89.0443,"dy":0.0025,"dx":0.0025,"nx":19,"ny":19,"refTime":"2026-05-14T21:00:00:Z","depth":0,"parameterNumber":2,"parameterNumberName":"U-component_of_WINDS"},"data":[0,0,0,-1.4696,-1.4696,-1.4688,-1.4688,-1.4671,-1.4671,0,0,0,0,0,0,0,0,0,0,0,-1.4695,-1.4695,-1.4696,-1.4696,-1.4688,-1.4688,-1.4671,-1.4671,0,0,0,0,0,0,0,0,0,0,0,-1.4695,-1.4695,-1.4695,-1.4696,-1.4688,-1.4688,-1.4671,-1.4679,0,0,0,0,0,0,0,0,0,0,-1.4688,-1.4684,-1.4695,-1.4695,-1.4696,-1.4688,-1.4688,-1.468,-1.4679,-1.4672,0,-1.4666,0,-1.4668,-1.467,-1.4669,0,0,0,-1.4698,-1.4685,-1.4686,-1.4695,-1.4696,-1.4688,-1.4692,-1.4679,-1.4678,-1.467,-1.4666,-1.4665,-1.4668,-1.4669,-1.4669,-1.4623,-1.4623,0,0,-1.4699,-1.4692,-1.4687,-1.4685,-1.4687,-1.4693,-1.4692,-1.4679,-1.4673,-1.4666,-1.4665,-1.4668,-1.4669,-1.4669,-1.4624,-1.4623,0,0,0,-1.4698,-1.4692,-1.4694,-1.4686,-1.4685,-1.4692,-1.4692,-1.4673,-1.4674,-1.4665,-1.4667,-1.4669,-1.4669,-1.4624,-1.4623,-1.4601,0,0,0,-1.4699,-1.4692,-1.4694,-1.4689,-1.4685,-1.4679,-1.4686,-1.4675,-1.4674,-1.4667,-1.4669,-1.4669,-1.4624,-1.4624,-1.4603,-1.4592,0,0,0,-1.4697,-1.4692,-1.469,-1.4689,-1.4686,-1.468,-1.468,-1.4675,-1.4675,-1.4669,-1.4669,-1.4625,-1.4624,-1.4604,-1.4594,-1.4577,0,0,0,-1.4693,-1.467,-1.4689,-1.4665,-1.4686,-1.4666,-1.468,-1.4666,-1.4658,-1.4669,-1.4624,-1.4624,-1.4604,-1.4595,-1.4579,-1.4562,-1.4555,0,0,-1.466,-1.4666,-1.4652,-1.4669,-1.4645,-1.4668,-1.464,-1.4639,-1.4644,-1.463,-1.4629,-1.4602,-1.4594,-1.4578,-1.4516,-1.451,0,0,0,-1.4639,-1.4629,-1.4624,-1.4617,-1.4616,-1.4614,-1.4618,-1.4617,-1.4605,-1.4636,-1.4592,-1.4588,-1.4578,-1.457,-1.4565,-1.4557,-1.462,-1.462,-1.462,-1.4583,-1.4592,-1.4569,-1.4576,-1.4569,-1.4573,-1.4567,-1.4567,-1.4577,-1.4566,-1.4562,-1.4524,-1.4515,-1.4511,-1.4503,-1.4554,-1.4554,-1.4554,-1.4554,-1.4536,-1.4523,-1.4537,-1.452,-1.4529,-1.4514,-1.4517,-1.4524,-1.4511,-1.4528,-1.452,-1.4538,-1.4505,-1.4497,-1.4553,-1.4553,-1.4553,-1.4553,-1.4553,-1.4501,-1.4496,-1.4496,-1.4485,-1.4476,-1.4484,-1.447,-1.4478,-1.4486,-1.4478,-1.4474,-1.4474,-1.4475,-1.4475,-1.4475,-1.4475,-1.4475,-1.4475,-1.4475,-1.4463,-1.4464,-1.4452,-1.4449,-1.4445,-1.444,-1.4444,-1.4439,-1.4436,-1.4443,-1.4443,-1.4453,-1.45,-1.4511,-1.4473,-1.4473,-1.4473,-1.4474,-1.4474,-1.4412,-1.4425,-1.4407,-1.4403,-1.4399,-1.4388,-1.4399,-1.4389,-1.4386,-1.4379,-1.4391,-1.4425,-1.4431,-1.4435,-1.4444,-1.439,-1.439,-1.439,-1.439,-1.4381,-1.4385,-1.4368,-1.4361,-1.4355,-1.4362,-1.434,-1.4341,-1.4345,-1.4343,-1.4352,-1.4366,-1.4369,-1.4373,-1.4378,-1.4387,-1.432,-1.432,-1.432,-1.435,-1.4353,-1.4334,-1.4338,-1.4336,-1.4333,-1.4312,-1.4301,-1.4308,-1.4317,-1.4342,-1.4345,-1.4367,-1.4373,-1.4383,-1.4391,-1.4408,0,0]},{"header":{"parameterUnit":"m.s-1","parameterCategory":1,"la1":30.2992,"la2":30.254,"lo1":-89.0895,"lo2":-89.0443,"dy":0.0025,"dx":0.0025,"nx":19,"ny":19,"refTime":"2026-05-14T21:00:00:Z","depth":0,"parameterNumber":3,"parameterNumberName":"V-component_of_WINDS"},"data":[0,0,0,-3.2447,-3.2449,-3.2545,-3.2545,-3.2666,-3.2667,0,0,0,0,0,0,0,0,0,0,0,-3.2419,-3.2419,-3.2446,-3.2449,-3.2545,-3.2545,-3.2666,-3.2667,0,0,0,0,0,0,0,0,0,0,0,-3.2418,-3.2419,-3.242,-3.2449,-3.2545,-3.2545,-3.2665,-3.2593,0,0,0,0,0,0,0,0,0,0,-3.25,-3.2475,-3.2419,-3.242,-3.245,-3.2545,-3.2545,-3.259,-3.2598,-3.2622,0,-3.2645,0,-3.2658,-3.2675,-3.2675,0,0,0,-3.2448,-3.2468,-3.2494,-3.242,-3.2451,-3.2544,-3.2501,-3.2594,-3.2603,-3.2633,-3.2647,-3.2651,-3.266,-3.2676,-3.2676,-3.2826,-3.2827,0,0,-3.2443,-3.2435,-3.2488,-3.25,-3.2487,-3.2498,-3.2504,-3.26,-3.2614,-3.2647,-3.2654,-3.2662,-3.2677,-3.2677,-3.2825,-3.2826,0,0,0,-3.2428,-3.2432,-3.2455,-3.2495,-3.2513,-3.2501,-3.2508,-3.261,-3.2618,-3.2656,-3.2664,-3.2677,-3.2679,-3.2825,-3.2826,-3.2858,0,0,0,-3.2425,-3.2423,-3.2453,-3.2449,-3.2511,-3.2563,-3.2516,-3.2612,-3.2623,-3.2663,-3.2677,-3.268,-3.2824,-3.2825,-3.2855,-3.2874,0,0,0,-3.2412,-3.2422,-3.2436,-3.2449,-3.249,-3.2561,-3.2575,-3.2614,-3.2628,-3.2676,-3.268,-3.2823,-3.2825,-3.2853,-3.287,-3.2914,0,0,0,-3.2396,-3.246,-3.2436,-3.2512,-3.2489,-3.2581,-3.2575,-3.2643,-3.2687,-3.2678,-3.2824,-3.2826,-3.2852,-3.2868,-3.2911,-3.295,-3.2966,0,0,-3.2473,-3.2469,-3.2515,-3.2496,-3.2591,-3.2567,-3.2666,-3.2712,-3.2721,-3.279,-3.2794,-3.2856,-3.287,-3.2913,-3.3051,-3.3063,0,0,0,-3.2537,-3.2569,-3.2596,-3.264,-3.2679,-3.2714,-3.2746,-3.2764,-3.2824,-3.2756,-3.2883,-3.2891,-3.2917,-3.2936,-3.2946,-3.297,-3.2834,-3.2833,-3.2833,-3.2636,-3.2648,-3.2724,-3.2748,-3.279,-3.2825,-3.2861,-3.289,-3.2886,-3.2916,-3.2937,-3.3019,-3.3041,-3.3049,-3.3073,-3.2957,-3.2957,-3.2957,-3.2957,-3.2752,-3.2801,-3.2799,-3.2872,-3.2884,-3.2944,-3.298,-3.2976,-3.3034,-3.3003,-3.3026,-3.2993,-3.3062,-3.3084,-3.296,-3.2959,-3.2959,-3.2959,-3.2959,-3.282,-3.2846,-3.2868,-3.2935,-3.2985,-3.3006,-3.3063,-3.307,-3.3077,-3.31,-3.3124,-3.3124,-3.3126,-3.3111,-3.3111,-3.3111,-3.3112,-3.3112,-3.3112,-3.2881,-3.2906,-3.2955,-3.3004,-3.3035,-3.3076,-3.3113,-3.3142,-3.3177,-3.3178,-3.3178,-3.3173,-3.3066,-3.304,-3.3117,-3.3116,-3.3115,-3.3115,-3.3114,-3.2997,-3.2973,-3.3049,-3.308,-3.314,-3.319,-3.32,-3.3261,-3.3286,-3.3314,-3.3305,-3.3224,-3.322,-3.3212,-3.3191,-3.3301,-3.3301,-3.3301,-3.3301,-3.3056,-3.3055,-3.3136,-3.3186,-3.3236,-3.3253,-3.3338,-3.3367,-3.3393,-3.341,-3.3395,-3.3367,-3.3358,-3.3359,-3.3348,-3.3328,-3.3471,-3.3471,-3.3471,-3.3129,-3.3134,-3.3206,-3.3234,-3.3282,-3.3323,-3.3404,-3.346,-3.3484,-3.3479,-3.3424,-3.3417,-3.3371,-3.3356,-3.3349,-3.3331,-3.3295,0,0]}]]